Vertical_Velocity
-1 -1 -2 -2 -1 -1 -1 -0 0 0 1 1 0 -1 -2 -3 -0 -2 -2 3 1 0 0 -0 1 -0 2 3 2 1 0 1 2
-1 0 -1 -1 -1 -1 -0 0 -0 -1 0 0 -0 -1 -1 -1 -0 -1 -2 -5 -0 1 1 0 0 0 0 1 3 1 1 0 1
-1 -1 -1 -2 -2 -1 -1 -1 -0 -1 -1 1 1 -0 -1 -0 1 0 1 -2 1 5 1 4 2 2 -1 -0 3 2 1 2 1
-1 -1 -1 -1 -1 -1 -1 -0 -1 0 -0 -1 -2 -1 1 -0 0 1 1 0 -1 4 4 3 5 2 3 -0 2 3 0 2 1
0 -1 -0 -1 -1 -0 -1 -2 -1 -1 0 -0 -1 -1 -2 -0 0 -0 1 2 -2 0 2 3 5 6 5 1 -0 1 3 -1 0
1 1 -0 -2 -2 -1 0 0 -1 0 -1 -1 -1 -3 -1 -1 -1 -1 1 2 4 3 3 1 8 9 1 3 3 1 -1 1 -0
-1 1 1 1 -1 -1 -1 -1 -0 -1 -1 -1 -0 -1 -2 -2 -1 -1 -2 -1 2 4 3 5 -9 22 2 -7 -6 -1 4 3 -2
-1 0 -1 0 -0 -1 -2 -2 -2 -2 -3 -2 -1 -1 -3 -3 -6 -4 -2 -3 1 1 -1 4 27 15 137 -18 24 -2 6 9 7
-1 -0 -1 -0 -0 -0 0 -1 -1 0 -1 -3 1 -3 -2 -4 -0 -4 -4 -1 2 3 3 2 2 39 53 28 64 13 4 9 5
1 0 -1 -0 -1 -1 -0 -1 -1 -1 0 -3 -1 -2 -3 1 -3 -1 -2 -2 -1 0 4 -2 -2 -19 29 2 -23 59 16 13 3
1 0 -1 -0 -1 -1 -1 -1 -2 -1 -0 -2 -2 -3 -0 -0 -3 -2 -4 -1 -0 0 2 2 16 19 10 -1 -36 -20 22 103 5
-0 0 -1 -0 -1 -0 -2 -1 -3 -0 -2 -1 -0 -2 -1 -1 -0 -2 -3 -2 -1 2 1 2 -15 -4 -37 -11 -23 -11 -19 0 6
-1 -1 -2 -1 -1 -0 -1 1 -1 -1 -2 -1 -3 -3 1 -2 2 3 1 -1 -0 3 0 2 5 -0 21 -5 14 -12 -9 0 1
-2 -1 -1 -1 -1 -1 -1 -2 1 -0 -2 -2 -2 -2 0 -1 -1 3 3 -1 -1 1 1 0 -1 -11 -19 -4 -17 2 1 3 5
-0 -1 -0 -1 -1 -2 -3 0 -2 0 -0 0 -3 -2 -1 0 -1 0 2 1 -2 -0 -2 0 4 12 0 5 3 -7 9 -0 4
-0 -1 -1 -1 -1 -1 -1 -0 0 -1 -1 -0 -1 -0 -3 -1 1 0 2 2 4 5 3 6 4 2 -4 11 -3 2 4 -0 6
-0 -1 -1 -0 -2 -1 -2 -1 -1 -1 -0 -2 -1 -1 -3 -2 0 1 4 2 2 3 4 3 3 -2 -5 -0 2 7 -6 4 3
-2 -2 -1 0 -0 -0 -1 -1 -0 -0 -0 -0 -1 -1 -2 -2 -1 -0 2 5 -1 -2 -2 -3 -2 -4 -2 -6 2 -7 3 1 1
-0 -1 -1 0 0 0 -0 0 -0 1 -0 -1 -1 -0 -1 -2 -1 -1 -1 -0 2 1 0 3 1 1 1 2 -1 -0 1 4 2
-1 -1 -1 -0 -0 -0 0 -0 0 1 0 0 -0 0 -1 -0 -0 -0 0 0 -0 3 5 1 1 3 3 2 -1 1 -2 -4 -3
Height
3147 3146 3145 3143 3142 3140 3139 3138 3137 3136 3135 3134 3134 3134 3134 3133 3133 3133 3133 3133 3133 3133 3133 3133 3133 3133 3132 3132 3133 3133 3133 3133 3134
3144 3143 3141 3140 3138 3137 3135 3134 3132 3131 3130 3129 3129 3129 3129 3128 3128 3128 3128 3129 3129 3129 3130 3130 3130 3130 3131 3131 3131 3131 3131 3132 3132
3141 3140 3139 3137 3135 3133 3131 3130 3128 3127 3126 3124 3124 3123 3123 3123 3123 3123 3122 3123 3124 3125 3125 3126 3127 3127 3128 3129 3129 3130 3130 3130 3131
3138 3136 3135 3133 3131 3129 3127 3126 3124 3123 3122 3120 3119 3118 3117 3116 3116 3117 3117 3117 3117 3119 3119 3120 3122 3123 3124 3125 3127 3128 3128 3128 3129
3135 3133 3131 3129 3127 3126 3124 3122 3120 3119 3118 3116 3114 3112 3111 3110 3109 3109 3109 3110 3110 3111 3113 3115 3116 3118 3118 3120 3122 3124 3125 3126 3127
3131 3129 3127 3125 3124 3122 3120 3118 3116 3114 3112 3110 3109 3106 3104 3102 3100 3100 3100 3100 3101 3103 3106 3108 3110 3112 3113 3114 3116 3119 3121 3123 3125
3128 3126 3124 3121 3120 3118 3117 3114 3112 3109 3107 3105 3102 3100 3097 3093 3091 3090 3089 3090 3092 3094 3097 3099 3103 3104 3107 3107 3109 3113 3117 3119 3121
3125 3123 3120 3118 3116 3114 3112 3110 3107 3105 3102 3100 3097 3093 3090 3087 3084 3081 3079 3079 3080 3084 3087 3093 3091 3095 3083 3092 3098 3106 3110 3114 3117
3121 3119 3117 3114 3112 3109 3107 3105 3103 3100 3098 3095 3091 3088 3084 3080 3077 3073 3071 3070 3070 3073 3078 3083 3080 3078 3077 3055 3070 3096 3104 3107 3111
3118 3116 3114 3111 3107 3105 3102 3099 3097 3095 3093 3089 3085 3082 3078 3075 3071 3068 3066 3065 3064 3067 3070 3074 3075 3074 3077 3068 3075 3079 3094 3100 3105
3115 3112 3109 3106 3103 3100 3097 3095 3092 3090 3088 3084 3080 3077 3074 3071 3067 3065 3063 3061 3061 3063 3066 3070 3073 3072 3075 3074 3074 3076 3085 3086 3098
3110 3108 3105 3102 3099 3096 3093 3090 3087 3086 3083 3079 3076 3073 3071 3067 3063 3061 3060 3059 3059 3060 3063 3067 3069 3069 3076 3076 3076 3079 3077 3071 3091
3107 3104 3101 3098 3094 3091 3088 3086 3083 3081 3078 3076 3072 3070 3067 3064 3061 3059 3058 3058 3057 3059 3060 3065 3068 3072 3074 3075 3073 3075 3079 3082 3087
3103 3101 3098 3094 3090 3087 3084 3081 3079 3077 3074 3072 3068 3067 3065 3063 3060 3058 3057 3056 3057 3057 3059 3060 3063 3066 3068 3071 3073 3075 3076 3078 3081
3099 3096 3093 3090 3086 3083 3080 3078 3075 3073 3071 3069 3066 3065 3062 3061 3059 3056 3056 3054 3056 3057 3058 3060 3061 3064 3068 3069 3070 3073 3075 3074 3076
3094 3092 3089 3085 3082 3079 3077 3075 3072 3070 3067 3065 3064 3062 3060 3059 3057 3056 3056 3056 3055 3055 3055 3058 3059 3062 3064 3066 3067 3069 3070 3070 3073
3090 3087 3084 3080 3078 3075 3074 3072 3069 3067 3064 3062 3061 3059 3059 3057 3056 3055 3055 3055 3055 3055 3055 3056 3057 3057 3060 3063 3063 3063 3065 3066 3068
3085 3082 3079 3076 3074 3072 3070 3068 3067 3065 3062 3060 3059 3057 3055 3054 3054 3053 3053 3053 3052 3052 3052 3053 3054 3056 3057 3059 3060 3061 3062 3062 3064
3080 3077 3074 3072 3071 3069 3067 3066 3064 3062 3060 3058 3056 3055 3053 3052 3052 3051 3050 3050 3050 3050 3051 3052 3052 3053 3054 3054 3056 3058 3059 3060 3062
3075 3072 3070 3069 3067 3065 3064 3063 3062 3060 3058 3056 3054 3053 3052 3050 3049 3048 3048 3048 3047 3049 3050 3050 3050 3050 3050 3051 3052 3053 3053 3054 3056